Regional Weather Roundup
Issued by NWS Upton, NY

Current Version | Previous Version | Text Only | Print | Product List | Glossary On
Versions: 1 2 3 4 5 6 7 8 9 10 11 12 13 14 15 16 17 18 19 20 21 22 23 24 25 26 27 28 29 30 31 32 33 34 35 36 37 38 39 40 41 42 43 44 45 46 47 48 49 50
000
ASUS41 KOKX 241007
RWROKX

REGIONAL WEATHER ROUNDUP
NATIONAL WEATHER SERVICE NEW YORK NY
600 AM EDT FRI APR 24 2015

NOTE: "FAIR" INDICATES FEW OR NO CLOUDS BELOW 12,000 FEET WITH NO
SIGNIFICANT WEATHER AND/OR OBSTRUCTIONS TO VISIBILITY.

NYZ071-072-176-178-NJZ106-104-241100-
NEW YORK CITY METRO AREA


CITY           SKY/WX    TMP DP  RH WIND       PRES   REMARKS
CENTRAL PARK   CLOUDY    39  19  44 NW8       29.88R WCI  33
LAGUARDIA APRT MOCLDY    40  22  48 NW14G25   29.86R WCI  32
KENNEDY INTL   MOCLDY    40  19  43 NW23G30   29.87R WCI  30
NEWARK/LIBERTY CLOUDY    39  20  46 NW16G23   29.88R WCI  30
BRNX BOT. GARD   N/A     37  21  52 W9        29.87S WCI  31
TETERBORO      CLOUDY    38  20  48 NW16      29.86S WCI  29
$$

NYZ177-179-078>081-241100-
LONG ISLAND NEW YORK

CITY           SKY/WX    TMP DP  RH WIND       PRES   REMARKS
FARMINGDALE    PTCLDY    38  21  50 NW9       29.84R WCI  31
ISLIP          PTCLDY    38  21  50 NW10      29.81R WCI  31
SHIRLEY        CLEAR     38  21  50 NW9       29.83R WCI  31
WESTHAMPTON    MOCLDY    37  21  52 W9        29.82R WCI  30
MONTAUK POINT    N/A     41  24  51 NW14G24   29.80R
$$

NYZ052-065-067-241100-
HUDSON VALLEY

CITY           SKY/WX    TMP DP  RH WIND       PRES   REMARKS
WHITE PLAINS   PTCLDY    36  20  52 NW23G30   29.81R WCI  24
NEWBURGH       CLOUDY    36  23  60 W18G25    29.85R WCI  25
MONTGOMERY     CLOUDY   N/A N/A N/A NW10G17   29.85R
POUGHKEEPSIE   CLOUDY    38  21  50 NW13G18   29.83R WCI  30
ALBANY         MOCLDY    34  21  59 W14G24    29.84R WCI  25
$$

NJZ001-105-106-008-010-013-015-019>022-104-241100-
NEW JERSEY

CITY           SKY/WX    TMP DP  RH WIND       PRES   REMARKS
NEWARK/LIBERTY CLOUDY    39  20  46 NW16G23   29.88R WCI  30
TETERBORO      CLOUDY    38  20  48 NW16      29.86S WCI  29
CALDWELL       CLOUDY    37  19  48 NW6       29.88R WCI  32
MORRISTOWN     CLOUDY    39  21  48 NW8       29.88S WCI  34
SOMERVILLE     CLOUDY    39  19  44 NW10      29.87F WCI  32
SUSSEX         CLOUDY    36  20  52 NW8       29.87S WCI  30
ANDOVER          N/A     35  20  54 N8G17     29.87S WCI  29
TRENTON        CLOUDY    37  19  48 NW10G20   29.90R WCI  30
MILLVILLE      CLOUDY    38  23  55 NW14G23   29.94R WCI  30
ATLANTIC CITY  CLOUDY    39  20  46 NW13G29   29.91R WCI  31
WRIGHTSTOWN    CLOUDY    38  20  48 NW13G20   29.88R WCI  30
TOMS RIVER     CLOUDY    37  19  48 NW16      29.90R WCI  28
BELMAR         CLOUDY    37  18  44 NW12G22   29.88R WCI  30
$$

PAZ047>061-062-071-241100-
EASTERN PENNSYLVANIA

CITY           SKY/WX    TMP DP  RH WIND       PRES   REMARKS
PHILADELPHIA   CLOUDY    40  20  44 NW21G29   29.95R WCI  30
ALLENTOWN      CLOUDY    37  20  50 NW13G24   29.92R WCI  29
SCRANTON       CLOUDY    34  19  54 NW9G17    29.89S WCI  27
$$

CTZ002-004>006-009-010-012-RIZ004-006-007-MAZ004-011-015-241100-
SOUTHERN NEW ENGLAND
 IN CT

CITY           SKY/WX    TMP DP  RH WIND       PRES   REMARKS
BRADLEY INTL   PTCLDY    36  21  54 NW10G20   29.78R WCI  28
HARTFORD       MOCLDY    37  21  52 NW8       29.80R WCI  31
DANBURY        CLOUDY    36  19  50 W14       29.83R WCI  27
WTRBRY/OXFORD  CLOUDY    36  19  51 NW6       29.80R WCI  31
BRIDGEPORT     PTCLDY    39  22  50 NW9       29.82R WCI  33
MERIDEN        MOCLDY    38  21  50 NW6       29.81R WCI  33
NEW HAVEN      MOCLDY    39  23  52 NW8       29.81R WCI  33
CHESTER        FAIR      36  23  60 NW10G17   29.78R WCI  28
GROTON         PTCLDY    37  22  54 NW9       29.78R WCI  30
WILLIMANTIC    CLOUDY    36  22  56 W5        29.77S WCI  32

 IN RI

CITY           SKY/WX    TMP DP  RH WIND       PRES   REMARKS
PROVIDENCE     PTCLDY    37  23  56 W13       29.75R WCI  29
BLOCK ISLAND   CLOUDY    37  21  52 NW14G23   29.76R WCI  29
WESTERLY       PTCLDY    37  22  54 NW7       29.77R WCI  32

 IN MA

CITY           SKY/WX    TMP DP  RH WIND       PRES   REMARKS
BOSTON         MOCLDY    38  27  64 W14G24    29.71S WCI  30
WORCESTER      CLOUDY    33  22  63 NW18G30   29.70R WCI  22
WESTFIELD      MOCLDY    36  21  54 NW12G24   29.77R WCI  28
PROVINCETOWN   MOCLDY   N/A N/A N/A W18G24    29.69S
NANTUCKET      PTCLDY    39  28  64 NW15      29.71S WCI  31
$$

ANZ330-335-338-340-345-350-353-355-241100-
COASTAL MARINE OBSERVATIONS


STATION/POSITION TIME  SKY/WX   TEMP    WIND        PRES    VSBY  WAVE
                                AIR SEA DIR/SP/G                  HT/PER
                 (UTC)          (F)     (DEG/KT/KT) (MB)    (MI)  (FT/S)
NY HARB ENTRANCE 0950            40 45  310/ 23/ 29 1010.3          4/ 4
4S FIRE IS       0903               44                N/A           3/ 4
20S FIRE ISLAND  0950            40 43  310/ 21/ 27 1010.2          5/ 5
23SW MTP         NOT AVBL
HUDSON CANYON    NOT AVBL
EXECUTION ROCKS  NOT AVBL
WESTERN LI SOUND NOT AVBL
CENTRAL LI SOUND NOT AVBL
EASTERN LI SOUND 0900            40     310/ 17/ 21   N/A
ROBBINS REEF     0900            39     310/ 22/ 27 1010.0
$$


>>>>>>>>>>>>>>>>>>>>>>>>>>>> KEY <<<<<<<<<<<<<<<<<<<<<<<<<<<
>                                                          <
>     SKY/WX - SKY CONDITION/PRESENT WEATHER               <
>     TMP    - TEMPERATURE IN FAHRENHEIT                   <
>     DP     - DEWPOINT IN FAHRENHEIT                      <
>     RH     - RELATIVE HUMIDITY IN PERCENT                <
>     WIND   - DIRECTION AND SPEED IN MPH                  <
>     PRES   - MEAN SEA LEVEL PRESSURE IN INCHES OF HG     <
>     WCI    - WIND CHILL INDEX                            <
>     VSB    - VISIBILITY IN MILES                         <
>     HX     - HEAT INDEX                                  <
>     TC     - TEMPERATURE IN CELSIUS                      <
>     VRB    - VARIABLE WIND DIRECTION                     <
>                                                          <
>>>>>>>>>>>>>>>>>>>>>>>>>>>> KEY <<<<<<<<<<<<<<<<<<<<<<<<<<<




USA.gov is the U.S. government's official web portal to all federal, state and local government web resources and services.